DMSP 5D-2 F12 DEB, 43344

Orbit data source: Space-Track

DMSP 5D-2 F12 DEB, 43344 is space debris in SSO originally from a launch on Mon, 29 Aug 1994 UTC launched from the Air Force Western Test Range (AFWTR). Debris objects in space refer to the collection of defunct objects orbiting the Earth. Examples of debris include non-operational satellites, rocket bodies, and fragments generated from explosions, collisions, or faulty payload assembly.

Loading next visibility...
Identifier
43344, 1994-057G
Orbit
SSO
Country
Flag of USUS
Related business
Manufacturer
LM/EW
Mission
Spacecraft
Bus & Motor
Unknown
Mass
Unknown
Launch date (UTC)
1994-08-29 (31 years ago)
Launch vehicle
Unknown
Launch site
Air Force Western Test Range (AFWTR)
Object type
Payload
Rocket body
Debris
Shape & HBR
Unknown
Radar Cross Section
Small (<0.1 m²)

Expand to show TLE details & history
Last TLE update: 1 day ago

TLE from 1 day ago
0 DMSP 5D-2 F12 DEB
1 43344U 94057G   25260.15488206  .00007365  00000-0  24103-2 0  9995
2 43344  98.9509   9.5912 0011432 209.6143 150.4397 14.38738098461575
Epoch: 2025-09-17T03:43Z
TLE epoch observation values (Epoch: 2025-09-17T03:43:01.809Z)
Latitude
-0.00004°
Longitude
-42.50123°
Altitude
772.707 km
Speed
7.464 km/s
True Right ascension
00h 38m 21s
True Declination
0° 00' 00"
Sunlit
Object was in full shadow at epoch
Visualization orbit readout
Latitude
Unknown
Longitude
Unknown
Altitude
Unknown
Speed
Unknown
Apparent Right ascension
Unknown
Apparent Declination
Unknown
Sunlit
N/A
Visualization observer readout
Local Sidereal Time
04:31:29
Azimuth
Unknown
Elevation
Unknown
Doppler factor
Unknown
Orbital elements
Apogee altitude
767.976 km
Perigee altitude
751.656 km
Semi-major axis
7,137.953 km
Eccentricity
0.00114
Inclination
98.9509°
RAAN
9.5912°
Arg. of periapsis
209.6143°
True anomaly
150.50425°
Mean anomaly
150.4397°
Eccentric anomaly
150.47198°
Mean motion
3.59901 °/min
Orbital period
100.03 mins
BSTAR
0.0024103
Loading maneuver chart data...
Computing Atmospheric mass density...
Loading historical data...
Loading historical data...
Loading historical data...
Loading historical data...
Loading historical data...
Loading historical data...
Loading historical data...

Documentation

Showing up to 5 results
|